GFSFLT2_sfc_30mbdewp_204.txt.gz
Dewpoint
69 69 70 70 70 70 70 69 69 69 69 69 69 69 69 67 67 67 66 65 64 61 59 55 52 53 65 65 65 65 64 64
68 68 68 70 70 70 70 69 69 69 69 69 69 68 68 67 67 67 66 65 64 61 59 55 51 50 64 64 64 64 62 62
67 68 67 68 68 70 69 69 69 69 69 69 69 68 68 67 66 66 65 64 63 61 59 56 53 49 59 64 63 61 61 61
66 67 67 67 67 68 67 68 69 69 69 69 68 67 66 66 65 65 64 63 62 60 58 56 54 49 60 64 60 60 60 60
65 66 66 66 66 67 68 68 68 69 68 68 67 66 66 65 64 64 63 63 61 59 58 55 51 45 59 59 58 58 59 60
66 66 66 65 66 65 66 67 67 67 67 67 67 65 64 63 63 62 61 61 59 58 56 54 50 41 50 57 57 56 56 58
65 66 65 65 65 65 65 66 66 66 67 67 66 65 64 63 62 61 61 59 58 57 56 53 49 42 44 55 56 55 55 57
65 65 66 65 65 66 65 65 65 66 66 66 66 65 64 63 62 61 60 59 58 57 56 53 49 45 44 53 55 54 54 56
65 65 65 65 65 65 65 65 65 65 65 65 65 65 64 63 62 61 60 59 58 56 55 53 49 45 44 53 54 53 54 55
65 65 65 65 65 65 64 64 64 64 64 64 65 64 64 62 61 61 60 59 57 56 55 52 50 45 45 51 53 52 53 55
64 65 64 64 64 64 65 65 65 65 64 64 64 64 64 64 62 61 60 58 57 56 55 54 50 47 44 49 52 52 52 53
63 64 65 65 65 65 65 65 65 65 65 65 65 65 65 64 64 62 61 59 58 57 56 54 53 49 45 49 51 51 51 52
63 63 64 64 63 62 60 61 62 62 63 64 65 65 64 64 64 63 62 60 59 58 57 56 53 50 49 49 47 49 50 50
58 56 52 51 54 57 57 58 55 56 56 57 59 58 57 57 57 57 59 60 58 58 57 56 55 50 49 47 45 46 47 48
46 46 47 48 51 49 47 47 45 45 44 48 50 53 52 53 53 54 53 54 55 55 57 56 54 52 51 48 44 43 46 47
46 47 46 46 45 43 42 42 41 44 48 49 48 49 49 50 50 51 50 51 52 55 56 56 55 53 50 51 50 47 45 41
43 45 45 43 43 44 43 42 43 44 41 40 41 43 43 44 45 47 48 49 51 52 53 54 54 53 52 49 49 49 46 43
38 38 39 40 40 40 37 35 36 35 36 37 38 40 41 43 44 46 46 47 50 50 52 53 53 52 51 51 50 47 44 44
37 34 32 34 33 32 33 34 35 35 36 37 37 38 38 39 40 41 42 43 47 49 51 50 50 49 49 49 49 50 49 46
31 28 31 31 29 31 34 35 36 37 37 37 38 39 38 39 41 42 43 45 46 48 49 48 48 47 47 47 48 47 49 49

GFSFLT2_sfc_30mbdewp_207.txt.gz
Dewpoint
69 69 70 70 70 70 69 69 68 69 69 69 69 70 68 67 67 67 66 65 64 61 58 55 54 62 66 66 66 66 65 64
69 68 68 70 70 70 69 69 68 69 69 68 68 69 68 67 67 67 66 65 64 61 58 55 52 54 65 65 65 65 64 63
68 67 68 68 69 70 69 69 69 69 69 69 68 67 67 67 66 66 66 65 63 61 58 55 52 49 63 65 64 63 63 62
67 67 67 68 67 68 69 68 69 69 68 69 68 68 67 66 66 66 65 64 63 61 59 56 53 44 47 63 62 62 63 61
66 67 67 67 66 68 68 67 69 69 69 68 68 68 67 66 66 65 65 64 62 61 59 56 53 47 46 55 58 62 61 61
65 66 66 66 66 66 67 67 68 68 69 69 68 67 67 66 65 65 64 63 62 61 60 59 55 48 46 54 57 59 60 61
66 66 66 65 66 65 66 66 67 68 68 68 67 66 66 66 66 65 64 63 62 61 60 59 57 51 44 48 55 57 59 60
66 66 66 65 66 65 65 66 67 67 67 67 67 66 65 65 65 65 64 62 62 61 60 59 58 54 47 43 49 55 58 59
65 66 66 65 65 65 66 66 66 66 66 66 66 66 65 66 65 63 63 63 62 61 60 59 58 55 51 45 46 52 56 58
65 65 65 65 65 66 65 65 65 65 65 65 65 65 65 65 65 64 63 63 62 61 60 58 57 56 54 50 47 49 52 56
65 65 64 64 65 65 65 65 65 65 65 65 65 65 65 65 64 64 63 61 60 60 58 57 56 55 53 51 49 49 50 53
64 65 64 65 66 66 66 66 66 66 66 65 65 65 65 65 65 64 63 62 60 59 59 58 57 57 55 51 49 49 51 51
64 64 65 65 64 64 63 63 64 63 65 65 65 64 65 64 64 62 61 61 60 61 59 58 57 55 53 50 50 51 50 52
63 62 62 61 60 59 60 58 56 55 54 55 55 54 55 55 53 52 51 51 51 51 51 55 55 54 52 49 47 48 48 50
56 53 53 54 53 51 49 47 48 48 49 51 51 51 51 52 51 51 50 50 48 49 49 48 47 51 54 51 46 45 47 49
47 47 46 46 45 44 44 42 42 47 49 47 43 43 42 42 42 42 43 44 45 46 48 50 49 48 51 53 52 49 47 44
48 46 45 45 45 45 44 44 45 43 41 40 41 42 41 41 42 42 43 44 44 45 47 48 51 50 47 48 50 51 49 46
44 41 42 43 41 40 39 37 38 37 38 39 39 40 41 41 41 42 42 42 43 44 46 47 48 48 49 48 47 46 45 46
41 39 36 37 36 35 36 37 38 37 38 39 39 39 39 39 40 40 39 40 41 43 44 46 47 48 49 49 48 47 46 46
35 34 33 32 32 34 37 37 37 38 39 39 38 38 37 39 40 40 40 41 42 43 45 47 48 49 49 48 47 46 46 44

GFSFLT2_sfc_30mbdewp_210.txt.gz
Dewpoint
67 69 70 70 70 70 69 69 69 69 69 69 70 69 68 67 68 67 67 66 63 61 58 56 56 63 66 67 66 66 62 57
67 68 68 68 69 69 68 68 68 69 68 69 69 69 67 67 67 67 66 65 63 60 58 55 53 59 65 66 66 66 63 57
67 67 67 67 66 69 68 68 68 68 68 68 68 65 66 66 65 66 66 65 63 61 58 54 51 49 63 65 65 60 57 56
67 67 67 68 68 68 68 67 66 66 66 67 65 65 65 65 65 66 65 64 63 61 59 55 50 42 44 62 58 55 56 55
66 67 68 68 67 68 68 68 67 67 67 67 66 66 66 65 66 65 64 64 63 61 60 57 54 47 40 42 48 52 52 53
65 67 67 68 67 67 67 67 68 68 68 68 68 67 67 66 65 65 65 64 63 63 61 60 59 55 47 43 47 47 47 49
64 66 67 67 67 66 66 66 67 67 68 68 68 67 66 66 65 65 64 64 63 63 62 62 61 60 56 48 47 48 47 48
65 66 67 67 66 66 66 66 66 67 68 68 68 67 66 66 65 65 64 64 62 62 61 61 61 61 60 56 50 49 50 50
64 66 67 67 66 66 66 66 66 67 67 67 67 67 66 65 65 65 64 63 64 63 62 62 61 60 60 59 56 52 51 51
63 65 67 66 66 66 66 66 66 65 66 66 66 66 66 65 65 65 65 65 64 63 62 61 61 60 60 59 58 55 54 53
63 66 66 66 66 66 66 66 65 65 65 64 65 66 66 66 66 65 66 64 63 62 61 61 59 58 58 58 57 55 54 52
62 65 66 66 66 66 66 65 65 66 66 66 66 66 66 66 66 65 65 64 63 62 61 61 60 59 58 58 57 55 53 52
62 63 65 65 65 65 65 65 66 66 66 65 65 65 65 64 63 60 58 56 54 53 54 55 55 57 55 54 54 54 53 54
63 64 65 66 65 64 64 63 61 58 54 53 53 52 53 50 51 49 49 47 47 47 46 45 43 46 50 48 44 44 52 53
63 64 63 61 60 57 54 52 48 47 46 47 49 49 49 49 48 47 47 45 42 43 43 43 41 41 43 46 38 33 35 48
62 59 54 52 49 45 42 39 40 42 43 42 40 43 42 41 42 41 41 40 39 40 38 39 39 37 39 41 47 45 41 38
54 49 44 44 43 45 41 40 40 39 38 38 39 38 38 37 38 39 39 39 38 41 41 40 40 39 38 39 41 46 46 46
47 44 41 42 41 39 38 38 35 31 32 31 31 33 35 37 39 40 40 40 39 39 40 41 42 42 42 42 42 39 38 42
42 40 39 39 38 36 35 35 34 32 32 31 34 32 32 33 36 39 39 39 40 40 41 41 42 42 42 43 43 44 45 43
38 36 35 35 34 34 34 34 31 31 33 34 34 33 34 36 39 40 40 41 41 42 42 42 43 44 44 45 46 47 46 46

GFSFLT2_sfc_30mbdewp_216.txt.gz
Dewpoint
68 68 69 69 69 70 70 70 69 70 70 69 69 70 69 68 69 68 67 66 64 62 60 58 58 60 62 65 66 66 66 65
69 67 68 69 69 69 69 69 69 69 69 69 69 69 68 68 68 68 67 65 63 61 59 56 55 58 62 64 65 66 65 63
69 67 67 66 67 68 69 68 68 68 69 69 69 68 67 67 67 67 66 65 63 61 59 56 54 52 59 63 64 63 60 58
70 69 68 67 65 68 68 68 68 68 67 68 68 66 66 65 66 66 66 65 63 61 60 57 55 51 50 62 62 59 55 55
68 69 69 68 66 68 67 66 66 67 66 67 67 66 67 66 66 66 66 65 64 62 61 59 57 54 53 55 55 53 53 53
68 69 69 69 68 69 67 66 66 66 66 67 66 67 67 67 67 66 66 65 64 63 63 62 61 60 58 58 55 52 50 53
67 68 69 69 69 68 68 66 66 66 67 68 68 67 67 67 67 66 65 65 65 64 64 64 63 63 63 61 58 55 54 54
66 67 69 69 68 68 68 68 68 68 68 68 68 68 67 67 67 67 66 66 66 65 64 64 63 63 62 62 61 60 57 56
65 67 68 68 68 68 67 66 68 68 68 68 68 68 67 67 67 66 67 67 65 65 64 63 63 63 63 63 63 62 62 60
65 66 68 69 68 68 67 66 66 67 67 67 67 68 67 67 66 65 65 65 65 65 64 63 63 63 62 62 62 62 62 62
64 66 67 68 68 68 67 67 66 65 66 67 67 67 66 66 66 65 66 66 65 64 63 63 61 61 61 60 60 60 60 60
65 66 67 68 67 67 67 67 66 66 66 66 67 67 67 66 65 65 65 65 64 63 62 62 61 60 58 57 59 58 59 58
63 66 67 67 67 66 66 65 65 65 66 66 66 67 66 66 66 65 64 63 60 59 55 51 50 50 48 48 55 56 55 57
58 66 67 66 67 66 65 65 65 65 66 66 66 65 65 65 61 57 51 50 50 49 48 48 48 47 46 45 41 41 44 52
59 67 66 66 66 66 65 65 65 65 65 64 63 59 53 51 48 47 46 45 44 46 45 44 43 45 44 43 40 36 38 38
65 65 66 66 66 65 64 62 60 58 56 53 52 49 46 44 43 43 43 43 42 43 42 46 45 43 43 41 41 41 38 36
63 63 64 65 63 62 60 56 53 52 49 47 44 44 42 39 39 41 42 44 44 44 44 44 45 44 43 43 42 43 43 40
63 63 62 62 60 58 55 51 48 45 44 41 42 41 40 39 39 41 43 43 44 44 45 45 44 45 45 45 44 43 42 42
61 60 58 56 55 50 49 47 44 43 41 38 38 36 36 39 40 41 43 43 44 44 45 45 45 45 46 45 45 45 45 45
59 57 53 51 49 47 46 44 42 40 38 37 36 36 36 40 40 42 42 44 44 45 46 46 45 45 44 44 44 44 45 44

GFSFLT2_sfc_30mbdewp_219.txt.gz
Dewpoint
69 69 70 71 71 71 70 70 70 69 70 70 70 70 69 68 68 68 67 66 64 62 60 59 58 59 61 63 65 65 65 64
68 69 69 69 70 70 70 70 69 69 69 69 69 69 68 68 68 68 67 65 64 62 59 57 56 56 61 62 63 64 63 62
67 68 68 68 69 69 69 69 69 69 69 68 68 69 68 68 68 67 66 65 63 62 59 57 54 53 54 61 62 61 61 61
67 66 67 67 67 68 68 68 68 68 68 68 68 68 67 67 67 67 66 64 63 62 60 58 56 52 50 56 61 59 58 56
67 66 66 66 66 67 68 68 68 68 68 68 68 67 67 66 66 66 66 65 63 62 61 60 57 54 51 52 56 56 55 54
68 68 67 66 66 67 66 67 67 67 67 67 66 66 66 66 66 66 65 65 63 63 62 61 59 59 57 52 55 55 53 52
69 69 68 68 68 67 66 66 66 66 66 67 67 66 66 67 66 66 65 65 64 64 63 63 62 63 62 60 59 58 56 55
68 68 69 68 68 68 67 66 66 66 66 67 68 67 66 67 67 66 66 66 65 65 65 64 64 63 62 62 62 61 59 57
67 68 69 67 68 67 68 67 67 68 67 67 68 67 67 67 66 66 66 66 65 65 64 64 64 63 63 64 63 63 62 62
67 68 69 68 69 67 68 67 68 68 68 68 68 68 67 67 66 66 66 66 65 65 64 63 62 62 61 61 62 62 61 61
67 68 68 68 68 67 67 66 65 67 67 67 67 68 67 66 66 66 65 65 64 64 63 62 61 60 60 60 60 60 60 60
66 67 68 68 68 67 67 66 66 65 66 66 67 67 67 66 66 65 65 64 64 63 61 61 61 60 59 58 57 58 58 58
66 67 68 67 67 66 66 65 65 65 66 66 67 67 66 66 65 65 64 63 63 63 62 58 51 50 46 45 46 49 55 57
66 67 68 66 67 66 66 65 65 65 66 66 66 66 66 65 65 64 63 53 50 49 47 47 47 46 44 43 38 39 40 46
65 66 67 66 66 65 65 65 65 64 65 65 65 65 64 57 51 48 47 46 44 45 43 42 42 44 44 42 39 37 39 35
66 67 66 66 66 65 64 63 63 63 64 64 63 53 48 47 46 45 44 43 42 44 46 44 43 41 43 43 43 43 40 40
66 66 66 65 65 65 64 63 62 60 57 56 51 46 45 44 41 42 44 44 44 43 43 45 46 44 44 44 44 44 44 41
65 65 65 65 64 64 63 59 56 54 51 46 44 42 40 41 41 43 43 44 44 44 44 44 44 45 45 45 45 44 44 44
63 64 64 63 63 62 58 55 53 51 47 45 41 41 40 41 42 43 43 44 44 45 45 45 46 45 45 45 45 45 45 45
62 62 60 61 60 57 54 50 49 47 43 43 41 38 41 42 42 43 43 45 45 43 43 42 43 42 42 42 43 42 42 42

GFSFLT2_sfc_30mbdewp_225.txt.gz
Dewpoint
70 70 70 69 69 69 69 68 68 68 69 69 69 68 67 67 67 67 67 66 64 62 61 60 59 58 58 60 61 63 62 62
69 69 70 69 69 69 69 68 68 68 68 69 68 67 67 67 67 67 67 65 63 62 60 58 57 57 57 59 60 61 59 59
68 68 69 69 69 69 69 69 68 68 68 68 67 67 67 67 67 67 66 65 63 62 60 58 56 54 54 54 58 58 57 56
67 68 68 68 68 69 69 69 68 68 68 68 68 67 66 67 66 67 66 65 63 62 60 58 56 54 51 50 51 55 55 54
66 67 68 68 68 68 68 69 68 68 68 68 67 66 66 66 66 66 66 65 63 62 61 59 57 55 54 52 50 52 53 54
65 66 66 67 67 67 67 67 67 67 67 67 66 66 65 65 65 65 65 64 62 61 60 60 59 59 57 55 54 52 54 54
65 65 65 66 66 67 67 66 67 67 67 67 66 65 65 64 64 64 64 64 63 62 61 61 60 61 60 59 57 54 56 57
65 65 65 65 65 65 66 66 66 66 66 66 66 65 64 64 64 64 64 64 64 63 62 62 62 62 62 62 60 60 61 60
66 65 65 64 64 64 64 65 65 65 65 66 66 65 64 65 65 64 64 64 64 63 63 63 64 64 64 63 62 62 62 62
67 66 65 64 64 65 64 64 64 64 65 65 65 65 65 65 65 65 65 65 64 64 64 63 63 63 62 62 62 61 61 61
67 66 65 64 64 65 65 65 64 64 65 65 66 66 66 65 66 66 65 65 65 64 63 63 62 61 61 61 60 59 58 58
67 67 66 66 66 66 67 66 65 66 66 66 66 66 66 66 66 65 65 65 64 64 63 62 61 61 60 59 57 55 54 54
67 67 67 67 67 66 66 65 66 66 66 66 66 66 66 66 66 65 65 64 64 63 62 61 59 52 49 46 43 42 43 44
66 67 67 67 67 66 66 66 66 66 66 67 67 67 67 66 65 65 64 64 63 62 59 54 50 46 44 40 31 32 38 40
65 66 67 67 67 66 65 65 64 64 64 65 66 67 67 66 65 65 64 62 61 58 54 51 47 44 44 36 30 25 40 39
65 66 67 67 67 66 65 64 64 64 64 64 65 66 66 65 64 63 60 56 53 48 45 44 42 40 42 43 42 41 33 29
64 65 67 67 67 66 65 64 64 64 64 64 63 62 61 60 58 56 53 48 46 45 43 42 42 41 41 42 42 43 42 41
63 65 66 67 67 66 65 64 64 63 63 62 58 56 53 53 51 49 47 45 44 44 44 43 43 43 44 44 43 42 43 43
62 64 65 66 66 66 65 64 63 63 63 60 54 51 48 47 46 46 45 45 45 45 44 44 44 44 44 44 44 44 44 43
61 64 65 66 66 65 65 63 63 62 62 58 54 50 46 45 45 45 45 45 45 45 44 43 43 42 41 41 41 40 40 39

GFSFLT2_sfc_30mbdewp_231.txt.gz
Dewpoint
67 67 68 69 69 69 68 68 68 68 68 68 68 67 66 67 67 67 67 66 65 64 64 64 64 63 63 62 62 62 59 61
67 68 66 67 68 68 68 67 68 68 68 68 67 66 66 67 67 67 66 64 62 62 61 60 60 59 60 60 61 60 55 56
67 67 67 67 67 68 67 67 68 67 67 67 66 62 64 65 64 66 65 63 62 61 60 59 57 55 55 57 59 53 52 50
67 67 67 67 66 67 67 66 66 66 66 66 65 64 63 63 65 66 65 63 62 61 59 57 55 53 51 51 50 53 53 53
66 67 67 67 66 67 66 66 66 67 67 67 66 64 65 63 64 64 64 64 60 60 59 56 56 55 55 55 54 52 52 54
65 66 67 67 67 66 66 66 66 66 66 67 66 65 65 64 64 64 64 62 61 60 58 59 59 59 59 59 56 55 53 56
64 65 66 66 67 66 66 66 66 66 66 66 66 65 65 64 64 65 63 63 61 60 60 60 60 61 61 61 60 60 58 57
63 65 66 66 66 66 66 66 66 66 66 66 66 65 65 64 64 64 64 64 63 62 62 62 62 62 62 63 63 63 62 61
62 64 65 65 65 66 66 66 66 66 66 66 66 66 65 64 63 64 63 65 64 64 64 64 63 63 63 64 64 65 64 64
63 63 64 65 65 65 65 65 66 65 65 66 66 66 65 64 63 63 64 64 64 65 64 64 64 64 64 64 64 64 64 64
64 65 64 64 65 65 65 65 65 65 66 66 66 66 65 64 63 63 64 64 64 65 65 65 64 64 64 64 63 63 63 62
65 66 65 65 64 64 64 64 64 64 64 64 65 65 65 65 64 64 64 64 64 65 65 65 64 64 63 62 63 62 61 59
63 65 66 65 64 63 63 63 63 63 64 64 65 65 65 65 64 64 64 63 64 65 65 64 62 62 60 59 57 53 51 47
60 64 66 66 65 64 63 63 63 63 63 64 64 64 65 65 64 63 63 63 64 65 65 62 59 55 56 51 55 51 39 42
46 58 64 66 65 64 64 64 64 63 63 64 64 64 64 64 64 63 64 64 64 65 64 62 58 51 49 52 47 49 36 39
37 42 59 65 65 64 64 63 62 63 63 63 64 64 64 64 64 64 64 64 65 65 63 61 57 55 46 44 43 39 42 32
42 44 47 61 65 65 64 63 63 63 63 63 64 64 65 65 65 65 65 65 65 64 60 59 58 55 49 44 44 44 44 35
50 55 56 60 65 65 65 64 64 63 64 64 64 64 65 66 66 66 66 65 64 62 60 57 52 51 48 45 42 39 38 37
53 59 60 64 65 65 65 65 65 64 64 64 63 63 63 65 66 65 64 62 60 58 56 53 49 48 46 44 43 42 43 41
46 58 60 64 65 65 65 65 65 65 65 64 63 63 64 65 65 63 61 58 56 54 52 49 47 47 45 45 45 44 43 41

GFSFLT2_sfc_30mbdewp_237.txt.gz
Dewpoint
58 61 65 69 69 69 68 68 69 69 69 70 70 70 69 69 69 69 69 69 68 67 66 66 65 65 64 63 63 62 60 56
60 60 60 61 65 68 67 68 68 68 68 69 69 68 68 68 69 69 68 68 67 66 65 65 65 64 63 62 61 59 56 56
62 60 59 59 59 65 67 68 67 68 67 68 67 60 63 65 63 67 67 67 66 65 64 64 63 61 60 59 58 50 48 50
63 62 61 61 58 61 60 61 62 62 61 64 59 56 57 58 60 65 65 64 64 63 62 61 59 53 54 57 51 47 46 43
62 64 64 62 59 61 59 58 58 59 59 61 58 56 58 57 60 62 60 62 58 59 59 55 52 50 48 47 46 50 48 49
62 63 65 65 60 61 59 59 60 60 60 63 59 58 59 57 57 57 56 56 54 55 53 52 51 52 51 51 53 52 49 50
61 63 65 66 65 61 61 60 60 61 62 63 60 59 61 58 57 56 56 55 55 55 53 54 54 55 55 56 57 57 55 54
60 62 65 65 64 64 64 63 61 62 62 63 65 62 62 59 58 58 57 57 56 57 56 56 57 56 58 59 59 57 58 59
60 62 65 66 66 64 64 62 61 62 62 66 67 65 64 62 59 59 58 59 59 59 58 59 59 60 60 61 61 61 61 63
58 60 63 66 66 65 64 62 63 61 62 63 66 66 65 64 60 59 59 60 60 59 59 60 60 60 60 60 61 63 64 63
55 61 61 65 65 64 64 64 63 62 62 62 66 67 66 64 62 60 62 60 60 60 60 60 60 61 62 63 62 63 63 63
53 60 62 64 64 65 62 62 63 62 62 62 65 66 67 66 63 63 63 61 60 61 60 60 60 62 61 60 63 63 64 63
52 58 62 62 62 62 61 61 61 63 62 63 64 65 66 67 65 64 63 62 61 63 62 61 61 63 63 62 62 63 63 62
54 58 62 62 62 61 61 60 61 62 63 64 64 65 67 67 66 63 64 62 63 62 63 61 63 63 62 60 58 58 59 59
56 57 61 64 63 63 61 61 61 62 63 64 65 65 66 67 67 65 64 64 63 64 64 63 62 64 64 59 55 53 56 52
43 52 58 62 66 64 63 61 61 62 63 64 64 66 66 66 66 66 65 65 64 64 64 63 64 62 63 63 60 54 52 49
40 41 41 46 57 65 64 63 61 61 63 64 65 66 67 66 67 66 66 65 65 65 64 65 64 63 61 60 59 57 55 54
36 41 40 41 45 57 64 63 63 60 60 63 64 65 67 67 66 67 66 66 65 65 65 65 65 65 62 60 59 56 55 54
32 34 37 42 46 47 59 63 64 64 62 63 64 65 66 66 67 66 66 66 66 66 66 66 66 65 64 62 59 57 54 54
31 33 36 38 42 49 50 60 63 63 63 62 64 65 65 66 67 66 66 66 66 67 66 66 66 66 64 62 57 50 47 47

GFSFLT2_sfc_30mbdewp_240.txt.gz
Dewpoint
66 69 70 71 71 70 70 70 70 70 70 71 71 70 69 69 69 69 70 69 69 68 67 67 66 65 64 63 62 61 60 59
64 66 69 70 70 69 69 69 69 69 70 70 70 69 69 68 69 69 69 69 68 67 66 65 65 64 63 62 60 59 56 55
63 63 64 67 68 68 68 68 68 69 69 69 68 67 68 68 67 68 68 68 67 66 65 64 64 63 62 60 59 56 53 52
63 62 61 61 60 66 66 67 67 67 67 68 66 63 64 64 63 66 67 67 66 65 64 63 62 59 58 58 57 54 51 47
63 63 63 61 57 64 62 63 64 64 64 66 63 61 61 60 65 65 66 65 63 63 62 61 58 56 54 55 52 50 51 50
63 64 64 63 62 61 60 60 61 62 62 64 62 61 61 60 63 63 62 61 59 59 59 57 56 55 55 53 51 53 52 55
63 64 64 64 65 63 60 60 60 61 62 64 61 61 62 61 61 61 60 59 58 58 57 57 56 56 56 56 56 56 58 58
63 64 65 64 65 64 62 62 62 62 62 63 63 62 64 62 61 60 59 59 57 59 57 58 57 58 58 58 59 60 59 58
64 64 66 66 66 66 64 63 63 63 64 65 64 65 65 62 61 62 60 60 58 59 59 60 59 59 59 60 61 62 61 63
63 64 67 67 66 67 65 64 63 63 64 66 66 65 66 64 63 62 62 62 62 61 61 60 60 61 61 62 63 63 62 64
62 63 66 67 68 66 66 64 65 64 64 66 68 67 66 67 63 63 63 63 62 62 62 62 61 62 63 63 63 64 64 64
61 62 65 67 67 67 66 66 66 64 65 64 67 68 67 66 65 65 64 63 62 63 62 62 62 61 58 60 63 64 64 64
60 62 63 66 66 66 65 64 65 65 64 65 66 67 68 67 66 65 66 62 62 63 63 63 62 63 62 62 63 64 64 64
59 62 63 65 65 66 65 64 64 64 64 64 65 68 68 67 67 66 65 63 63 63 63 62 62 63 62 62 60 62 63 64
56 61 63 64 64 65 64 64 63 63 64 64 65 66 67 67 67 66 65 64 63 64 64 62 62 63 64 61 58 57 60 60
59 58 62 63 63 63 62 62 61 62 63 64 65 66 66 67 67 67 66 65 64 64 64 63 63 62 64 64 64 56 55 48
52 56 61 63 63 62 63 62 62 62 63 64 65 66 66 66 67 67 66 66 65 65 64 64 64 63 62 62 63 60 57 54
48 47 49 51 59 66 65 65 64 63 64 64 66 66 66 66 67 67 67 66 66 65 65 64 64 64 63 62 60 60 58 55
45 47 45 46 46 50 66 66 65 64 63 64 65 66 66 66 67 67 67 66 66 66 66 64 65 64 64 62 62 60 58 56
43 41 42 45 48 47 48 64 65 65 64 63 62 65 66 67 67 67 67 67 66 66 65 65 65 65 65 63 62 60 57 56

GFSFLT2_sfc_30mbdewp_243.txt.gz
Dewpoint
69 70 71 71 71 70 70 69 69 70 70 71 71 70 69 69 69 69 70 69 69 67 67 67 66 65 64 63 62 61 59 58
69 69 70 70 70 69 69 69 69 69 70 70 70 69 69 68 69 69 69 69 68 67 66 66 66 65 63 62 60 59 56 58
68 69 69 69 69 69 69 69 69 69 69 69 69 69 68 68 68 69 69 68 67 66 66 65 64 63 62 60 58 56 54 61
65 67 68 69 69 69 69 69 69 69 69 69 68 67 67 67 67 68 68 67 66 65 65 64 63 61 60 60 56 53 51 57
63 64 66 67 67 68 67 68 67 67 67 68 66 65 66 65 65 67 67 66 65 65 64 63 61 59 58 57 54 51 50 54
62 62 62 61 65 65 65 65 65 65 66 66 65 62 62 62 64 65 65 64 63 62 61 60 59 57 55 55 53 50 50 54
62 62 61 60 62 61 62 62 63 63 64 65 63 61 61 61 63 64 63 62 61 60 59 58 56 56 56 56 54 52 57 54
62 62 62 60 62 59 60 61 62 62 63 64 61 61 62 60 62 62 61 60 59 59 57 57 56 56 56 57 57 58 58 56
62 63 63 62 64 60 60 61 61 61 62 63 62 62 63 60 62 61 60 60 58 58 57 58 56 58 57 57 57 59 61 60
62 63 63 62 62 63 61 62 61 62 62 63 63 62 63 61 61 62 60 60 58 57 59 58 58 58 58 59 59 60 62 64
63 63 64 63 63 66 63 62 64 62 64 63 64 62 65 64 63 61 63 61 61 59 61 60 60 60 59 61 63 62 63 64
63 63 65 65 63 65 66 63 64 64 64 66 65 64 64 66 63 62 62 63 63 62 60 62 60 59 62 62 63 64 64 64
63 63 66 66 65 63 65 63 64 63 65 64 68 65 65 65 65 64 64 62 62 62 62 61 61 63 61 60 62 64 64 64
62 63 66 66 66 65 64 65 64 65 63 65 67 68 66 65 65 65 64 63 62 63 62 62 61 62 60 61 59 60 63 63
61 62 65 66 66 66 65 65 65 64 64 63 65 67 68 67 66 66 65 65 62 62 63 61 61 63 62 60 58 57 60 62
61 61 64 65 66 65 65 64 63 64 64 64 65 67 67 68 67 66 66 65 64 63 64 62 61 61 63 61 61 58 58 54
62 62 62 64 65 65 65 63 63 63 63 64 64 66 67 67 67 67 66 66 65 64 63 64 62 61 62 62 62 60 56 50
60 62 63 63 65 64 64 64 63 62 62 63 64 64 66 67 67 67 67 66 66 64 64 64 63 62 63 62 62 60 59 55
48 55 60 63 64 64 64 63 63 62 62 63 64 64 65 65 66 66 66 67 66 66 65 64 64 63 63 63 62 61 60 57
46 45 44 47 54 64 64 64 65 63 64 64 65 65 65 66 66 66 67 67 67 66 65 65 64 64 63 63 62 61 60 58

GFSFLT2_sfc_30mbdewp_246.txt.gz
Dewpoint
69 70 70 70 70 69 68 69 69 70 70 71 70 69 68 69 69 69 69 69 68 67 66 65 65 65 64 63 62 60 57 60
68 69 70 70 69 69 68 68 69 69 70 70 69 69 68 68 69 69 69 68 67 66 66 65 65 64 63 62 61 57 54 59
67 67 68 69 69 69 68 68 68 69 69 69 69 68 68 68 68 69 69 68 67 66 66 65 65 64 63 61 60 55 52 63
67 67 67 67 68 69 68 68 68 69 69 69 68 68 67 67 68 68 68 67 66 66 65 65 64 62 60 60 58 54 52 57
67 67 67 67 68 67 68 68 68 68 68 68 67 67 67 67 66 68 67 67 66 65 64 63 62 60 58 57 55 53 51 59
65 67 67 68 67 67 67 67 67 67 67 67 66 65 65 64 64 66 66 66 64 63 63 62 61 59 57 56 56 53 51 53
62 64 66 64 66 66 66 66 66 66 66 66 65 63 63 63 63 65 64 64 62 62 61 60 59 57 56 55 54 54 53 55
61 62 63 62 64 64 64 64 65 64 65 65 65 62 62 62 63 63 63 63 61 60 59 58 57 56 55 55 55 57 54 55
60 60 61 61 62 62 62 62 63 62 63 64 63 62 62 60 62 62 62 61 60 59 58 58 56 56 55 55 57 58 59 57
60 59 60 60 61 59 60 60 61 61 62 63 63 61 62 60 61 62 61 60 59 58 58 57 57 56 56 57 58 58 59 62
61 60 60 59 63 60 59 60 60 60 61 62 63 61 61 61 61 62 61 60 59 58 58 57 57 57 57 58 59 59 59 63
62 62 60 60 60 63 61 61 61 61 61 61 62 62 62 62 62 61 62 60 60 58 57 59 58 58 58 58 60 62 63 64
62 62 62 60 59 64 63 60 62 61 62 63 63 63 62 63 62 63 62 62 60 60 59 58 60 60 59 60 61 63 63 63
62 62 63 62 60 61 64 63 62 63 63 64 64 63 63 62 63 63 62 61 62 62 61 60 59 61 59 59 58 59 62 63
62 62 63 64 62 61 62 66 63 64 63 64 66 65 64 63 64 64 63 63 61 62 62 61 59 61 61 59 57 56 58 61
61 62 63 64 64 63 60 64 64 62 63 64 64 67 66 65 64 64 65 64 63 62 62 62 60 60 62 62 60 59 57 55
61 62 63 65 65 65 61 61 63 64 63 63 64 66 67 67 66 65 65 65 64 64 62 62 62 60 61 61 60 58 55 53
60 61 63 65 65 66 64 62 62 62 63 64 64 65 66 67 67 67 66 65 65 65 64 63 62 62 61 61 61 60 58 55
59 61 62 64 66 66 66 64 64 63 63 63 64 64 64 66 67 67 67 66 65 65 65 63 63 62 62 61 62 61 60 59
52 58 57 62 64 65 65 65 65 64 63 63 63 64 64 65 66 67 67 67 67 66 65 64 64 63 63 62 62 62 62 59

GFSFLT2_sfc_30mbdewp_252.txt.gz
Dewpoint
69 69 69 69 69 69 69 69 69 70 70 70 69 69 68 69 69 70 70 69 68 66 66 65 65 64 64 62 60 58 58 62
68 69 69 69 68 68 68 69 69 69 69 69 68 67 68 68 69 69 69 68 67 66 65 65 65 65 63 62 59 55 54 61
68 67 68 68 68 68 68 69 69 69 69 68 67 67 68 68 68 68 68 67 66 66 65 65 64 64 63 62 59 54 57 61
67 67 68 68 67 68 67 68 68 69 69 68 67 66 67 67 68 68 67 66 65 65 65 65 64 63 62 61 57 53 51 62
66 67 67 67 67 67 67 68 68 68 68 68 67 66 66 66 67 68 67 66 65 64 64 64 63 62 60 57 55 54 51 51
66 66 67 67 67 67 66 66 67 66 66 66 66 65 65 65 66 66 66 65 63 63 63 62 62 61 59 56 55 55 52 49
65 66 66 66 66 66 66 66 66 66 65 65 66 65 65 64 64 65 65 65 63 62 61 61 60 59 58 57 55 55 54 52
64 65 65 65 65 65 65 65 66 66 65 65 65 65 64 64 63 64 64 64 63 61 60 60 59 58 57 56 55 54 55 54
64 64 65 64 64 65 64 65 65 65 65 65 65 64 63 63 62 62 63 63 62 61 60 59 58 57 56 55 54 53 55 56
64 64 64 64 64 65 64 64 65 65 65 65 65 64 63 62 62 62 62 62 62 61 59 58 57 56 55 54 54 54 54 56
61 64 64 64 65 64 65 65 65 64 64 64 64 63 62 61 61 61 61 61 61 60 59 57 55 55 54 54 55 55 55 57
58 61 63 64 64 64 63 63 64 64 63 63 64 63 62 61 61 61 61 61 60 60 58 58 56 54 54 54 56 56 57 58
57 58 60 61 61 61 61 61 62 62 62 62 62 63 62 61 60 60 61 60 60 59 58 57 57 57 55 56 57 58 58 59
58 57 57 59 59 59 57 58 59 60 61 61 61 62 61 61 60 60 60 60 60 59 58 57 57 58 55 56 54 56 59 60
59 58 57 57 57 58 58 57 59 58 59 59 60 61 61 60 59 59 60 60 59 60 59 58 57 58 58 55 55 54 56 58
60 60 59 58 56 57 56 53 53 56 56 58 58 60 60 60 59 59 59 60 59 60 60 59 58 57 59 59 58 58 56 54
60 61 61 60 58 56 57 55 54 55 57 57 58 59 60 60 60 59 59 59 60 60 61 61 60 59 59 59 59 59 57 57
33 59 61 61 60 58 58 58 57 56 58 59 60 60 62 61 61 60 60 61 61 61 61 61 61 61 60 60 59 58 58 57
51 46 60 61 61 60 59 59 59 58 59 60 61 62 63 63 63 62 62 62 63 63 63 62 61 61 61 61 61 60 60 59
55 58 60 62 62 62 61 60 60 61 62 62 63 63 63 65 65 65 64 64 64 64 64 64 63 62 62 62 62 61 62 61

GFSFLT2_sfc_30mbdewp_255.txt.gz
Dewpoint
66 65 68 70 69 69 69 69 70 70 70 71 70 70 69 69 70 70 70 69 68 67 67 66 66 65 63 61 60 57 60 61
66 66 66 67 68 69 69 69 69 70 70 70 69 68 69 69 69 70 69 68 67 66 66 65 65 64 63 61 59 54 58 61
66 66 66 66 65 67 68 69 69 69 69 68 67 65 66 67 66 69 68 67 66 65 65 65 65 64 63 61 58 54 60 61
65 66 65 66 64 66 66 66 66 67 67 67 65 65 65 63 66 68 67 66 66 65 65 64 64 62 62 62 59 55 53 62
65 66 66 65 63 65 65 65 66 67 67 67 66 65 65 64 65 65 65 65 63 64 63 62 61 61 61 61 58 55 50 55
65 65 66 66 65 64 64 65 65 66 67 67 66 65 65 64 63 64 64 63 62 62 62 62 63 62 61 60 57 54 51 49
65 65 65 66 66 64 64 64 65 64 66 66 66 64 64 64 63 64 64 63 61 61 61 61 62 62 61 59 56 55 56 52
65 66 65 65 65 65 65 65 65 65 64 65 65 65 64 63 63 64 63 63 61 60 59 59 59 59 59 58 56 54 56 56
64 65 66 66 65 65 65 64 65 64 64 65 65 65 64 63 62 62 61 62 62 61 61 60 58 58 57 56 56 55 54 56
63 64 65 66 65 65 64 64 65 64 64 65 65 65 64 63 62 61 61 62 61 60 59 58 57 55 54 54 53 54 54 54
62 64 64 65 65 65 65 65 64 64 64 64 65 64 64 63 61 61 62 61 61 60 59 58 55 55 54 54 54 53 53 51
61 63 64 64 64 64 64 64 64 64 64 64 64 64 64 63 61 61 62 60 60 60 59 59 57 54 52 50 53 54 55 56
60 62 63 63 63 62 62 62 63 64 64 64 64 64 64 63 61 61 61 59 59 60 59 59 57 58 57 55 54 55 56 56
58 60 62 63 62 63 62 62 62 62 63 63 64 63 63 62 61 60 60 59 60 60 59 57 58 59 57 56 53 53 59 58
58 58 60 62 62 63 62 59 60 60 61 62 63 63 63 63 62 60 60 60 59 60 60 58 56 59 59 56 56 53 58 60
60 59 58 60 61 60 59 55 55 57 59 60 60 62 62 62 62 61 61 60 59 59 59 58 58 56 59 59 58 59 54 53
59 60 59 58 59 58 58 56 54 55 57 57 60 61 62 61 62 61 60 60 59 59 59 60 59 57 58 58 59 59 59 57
37 60 60 60 59 59 58 57 56 54 55 56 57 59 61 61 61 61 60 59 59 60 61 60 60 60 59 59 59 57 58 58
56 51 53 61 61 59 58 59 58 57 56 57 57 58 60 60 61 61 60 60 60 60 61 61 61 61 61 60 61 61 61 61
55 58 53 60 62 62 60 59 59 60 60 59 60 60 61 62 63 63 62 61 62 62 62 63 62 63 63 63 63 63 63 63

GFSFLT2_sfc_30mbdewp_258.txt.gz
Dewpoint
60 63 67 70 70 70 70 70 70 70 70 70 70 69 69 70 70 70 69 69 68 67 67 67 67 65 63 61 60 58 58 56
60 60 62 64 68 69 69 69 70 70 70 70 69 69 69 69 70 70 69 68 67 67 67 66 66 64 63 61 58 54 58 58
61 61 60 60 61 67 69 69 69 70 70 69 68 63 65 67 64 69 69 67 66 66 66 66 65 64 63 61 59 56 59 58
62 61 60 60 58 63 62 64 65 65 65 67 63 61 62 60 63 68 68 66 66 66 65 65 64 60 60 61 59 57 55 60
62 62 63 62 58 60 59 60 61 63 64 65 61 61 60 57 60 64 63 66 62 63 63 62 60 59 58 59 58 59 54 55
62 63 63 62 60 59 58 57 59 61 63 65 62 61 61 56 55 56 58 59 57 58 57 57 58 59 59 59 60 57 54 53
61 63 64 63 61 60 59 58 59 59 62 64 62 60 59 57 55 55 56 55 56 57 55 56 58 58 59 59 58 57 55 52
62 62 64 63 62 62 61 61 60 60 61 62 64 60 60 58 57 57 56 55 55 55 56 57 57 55 57 57 57 54 52 52
61 63 63 63 63 63 63 62 61 60 59 62 64 63 61 59 57 57 55 56 56 55 55 55 54 55 55 56 56 55 51 50
61 62 63 64 64 63 62 61 62 61 60 61 63 63 61 61 57 56 55 55 56 55 54 54 52 51 50 50 50 50 50 51
59 62 63 64 64 63 63 62 63 61 61 61 63 63 62 61 57 56 58 56 56 54 53 53 50 51 49 49 50 49 48 48
59 61 62 64 64 64 63 62 63 62 61 61 62 63 62 62 57 57 59 57 55 55 54 54 53 50 48 46 48 49 49 48
58 59 61 62 63 62 62 61 62 62 62 62 62 63 63 62 58 58 59 57 54 56 56 56 54 54 53 51 52 53 53 50
58 58 60 62 61 61 61 61 61 62 62 62 63 63 63 62 59 55 58 56 56 56 57 54 54 53 53 49 50 50 52 55
58 59 60 62 61 60 60 60 60 60 60 61 62 63 63 63 61 58 56 58 55 58 58 56 51 53 57 51 48 50 50 54
55 58 60 62 63 60 59 57 55 57 58 59 60 62 63 62 62 61 59 57 57 56 58 57 56 50 56 58 56 52 52 49
41 55 58 60 62 62 62 60 58 56 56 57 59 60 62 62 62 62 61 60 58 58 57 58 56 55 51 55 57 57 58 57
46 46 54 58 60 62 61 61 59 57 56 59 59 58 59 61 61 61 62 61 60 59 60 59 58 56 55 53 54 55 55 56
56 50 44 55 59 60 61 60 60 59 57 56 57 58 60 61 62 62 61 61 60 60 59 60 59 58 58 56 55 56 57 57
47 52 55 57 58 60 60 60 60 59 59 58 57 58 58 60 61 62 61 61 61 61 60 60 60 61 60 61 60 61 62 63